Location: Del Amo
(33.8464°N, 118.2104°W)
Time: 19:49:58
(UTC+00:00)

Vanguard 1 Rocket - Pass Details

Date: 22 September 2024
Orbit: 650 x 4218 km, 34.3° (Epoch: 04 October)

Event Time Altitude Azimuth Distance (km) Brightness Sun altitude
Rises 18:43:31 0° 281° (W) 8,149 12.0 53.1°
Reaches altitude 10° 18:52:10 10° 266° (W) 7,377 12.0 53.8°
Maximum altitude 19:06:16 18° 232° (SW) 6,598 12.2 54.8°
Drops below altitude 10° 19:19:20 10° 197° (SSW) 6,650 12.4 55.5°
Sets 19:26:44 0° 180° (S) 7,075 12.5 55.8°
